Location: CCZU
(31.6840°N, 119.9550°E)
Time: 09:04:10
(UTC+08:00)

Hubble Space Telescope - Visible Passes

Search period start: 07 December 2021 00:00
Search period end: 17 December 2021 00:00
Orbit: 534 x 538 km, 28.5° (Epoch: 06 December)

Date Brightness Start Highest point End Pass type
(mag) Time Alt. Az. Time Alt. Az. Time Alt. Az.
07 Dec 3.3 04:40:18 13° S 04:40:18 13° S 04:41:08 10° SSE visible
12 Dec 3.2 19:04:40 10° SSW 19:05:51 14° S 19:05:51 14° S visible
13 Dec 2.7 18:53:01 10° SSW 18:55:24 20° S 18:55:24 20° S visible
14 Dec 2.3 18:41:30 10° SW 18:44:53 25° SSE 18:44:56 25° SSE visible
15 Dec 2.0 18:30:03 10° SW 18:33:39 29° SSE 18:34:27 27° SE visible
16 Dec 1.9 18:18:41 10° SW 18:22:25 34° SSE 18:23:56 25° SE visible
